Location: Frydek-Mistek
(49.6830°N, 18.3330°E)
Time: 20:46:47
(UTC+01:00)

Courier 1B Rocket - All Passes

Search period start: 26 February 2017 00:00
Search period end: 08 March 2017 00:00
Orbit: 920 x 1202 km, 28.2° (Epoch: 25 February)

Date Brightness Start Highest point End Pass type
(mag) Time Alt. Az. Time Alt. Az. Time Alt. Az.
26 Feb - 13:19:15 10° S 13:20:52 11° SSE 13:22:29 10° SSE daylight
26 Feb - 15:09:30 10° SSW 15:12:59 14° S 15:16:26 10° SSE daylight
27 Feb - 14:08:47 10° SSW 14:12:16 14° S 14:15:44 10° SSE daylight
27 Feb - 16:01:53 10° SSW 16:04:23 12° SSW 16:06:52 10° S daylight
28 Feb - 13:08:31 10° SSW 13:11:33 13° S 13:14:35 10° SSE daylight
28 Feb - 15:00:20 10° SSW 15:03:42 13° S 15:07:02 10° SSE daylight
01 Mar - 12:09:03 10° S 12:10:51 11° SSE 12:12:39 10° SSE daylight
01 Mar - 13:59:19 10° SSW 14:02:59 14° S 14:06:37 10° SSE daylight
01 Mar - 15:54:38 10° SSW 15:55:04 10° SSW 15:55:29 10° SSW daylight
02 Mar - 12:58:41 10° SSW 13:02:15 14° S 13:05:48 10° SSE daylight
02 Mar - 14:51:37 10° SSW 14:54:23 12° SSW 14:57:07 10° S daylight
03 Mar - 11:58:32 10° SSW 12:01:31 13° S 12:04:32 10° SSE daylight
03 Mar - 13:50:13 10° SSW 13:53:40 13° S 13:57:07 10° SSE daylight
04 Mar - 10:59:20 10° S 11:00:50 11° SSE 11:02:21 10° SSE daylight
04 Mar - 12:49:20 10° SSW 12:52:56 14° S 12:56:35 10° SSE daylight
04 Mar - 14:44:13 10° SSW 14:45:03 10° SSW 14:45:52 10° S daylight
05 Mar - 11:48:50 10° SSW 11:52:13 13° S 11:55:39 10° SSE daylight
05 Mar - 13:41:39 10° SSW 13:44:21 12° S 13:47:04 10° S daylight
06 Mar - 10:48:51 10° S 10:51:31 12° S 10:54:14 10° SSE daylight
06 Mar - 12:40:21 10° SSW 12:43:38 13° S 12:46:57 10° SSE daylight
07 Mar - 09:50:29 10° SSE 09:50:52 10° SSE 09:51:16 10° SSE daylight
07 Mar - 11:39:35 10° SSW 11:42:56 13° S 11:46:20 10° SSE daylight
